Hourly Data Report for May 31, 2015

All times are specified in Local Standard Time (LST). Add 1 hour to adjust for Daylight Saving Time where and when it is observed.

CHARLOTTETOWN A
PRINCE EDWARD ISLAND

46°17'21.000" N
63°07'09.000" W
48.50 m
8300301
71706
YYG

Download Data

Hourly Data (May 2015)
Hourly Data Report for May 31, 2015
Temp Definition
°C
Dew Point Temp Definition
°C
Rel Hum Definition
%
Wind Dir Definition
10's deg

Wind Spd Definition
km/h
Visibility Definition
km
Stn Press Definition
kPa
Hmdx Definition


Wind Chill Definition


Weather Definition


TIME
00:00 Legend Double Dagger 18.4 14.0 75 22 26 24.1 100.69     LegendNANA
01:00 Legend Double Dagger 18.4 14.9 80 22 32 24.1 100.66     LegendNANA
02:00 Legend Double Dagger 18.7 15.0 79 22 32 24.1 100.62     Mostly Cloudy
03:00 Legend Double Dagger 17.8 14.7 82 23 27 24.1 100.56     LegendNANA
04:00 Legend Double Dagger 17.7 14.8 83 22 27 24.1 100.55     LegendNANA
05:00 Legend Double Dagger 17.6 14.9 84 23 23 24.1 100.57     Mostly Cloudy
06:00 Legend Double Dagger 17.8 15.1 84 22 28 19.3 100.60     LegendNANA
07:00 Legend Double Dagger 17.9 15.2 84 23 23 24.1 100.69     LegendNANA
08:00 Legend Double Dagger 16.2 14.6 90 25 18 19.3 100.77     Rain Showers
09:00 Legend Double Dagger 14.9 14.1 95 29 20 12.9 100.96     Rain Showers
10:00 Legend Double Dagger 10.6 8.9 89 33 22 19.3 101.19     LegendNANA
11:00 Legend Double Dagger 9.7 8.2 90 34 20 19.3 101.33     Rain Showers
12:00 Legend Double Dagger 9.4 8.2 92 33 13 12.9 101.40     Rain Showers
13:00 Legend Double Dagger 9.7 7.8 88 34 9 19.3 101.51     Rain Showers
14:00 Legend Double Dagger 10.6 7.1 79 34 8 24.1 101.55     Cloudy
15:00 Legend Double Dagger 11.1 4.8 65 34 16 24.1 101.59     LegendNANA
16:00 Legend Double Dagger 11.0 6.0 71 34 14 24.1 101.69     LegendNANA
17:00 Legend Double Dagger 10.4 5.6 72 2 19 24.1 101.74     Rain Showers
18:00 Legend Double Dagger 9.4 4.6 72 36 10 24.1 101.86     Rain Showers
19:00 Legend Double Dagger 9.5 5.5 76 6 6 24.1 101.90     Rain Showers
20:00 Legend Double Dagger 9.1 5.3 77 7 7 24.1 101.96     Cloudy
21:00 Legend Double Dagger 8.9 5.7 80 17 4 24.1 102.01     Rain Showers
22:00 Legend Double Dagger 9.1 6.9 86 25 3 24.1 102.06     Rain Showers
23:00 Legend Double Dagger 8.3 6.9 91 32 3 24.1 102.10     Cloudy

Notes on Data Quality.

Legend

  • E = Estimated
  • M = Missing
  • NA = Not Available
  • ‡ = Partner data that is not subject to review by the National Climate Archives
Date modified: